• în Republica Moldova
  • Lista ţărilor
  • Pe 7 zile
  • Temperatura apei
  • Hartă satelitară
  • Meteo pe hartă
  • Widget-uri
  • user-avatar
    Intrare

    Meteo pe oră la Kitzbuhel

    Astăzi, 24 Noiembrie, Vineri

    Timp Temperatura Precipitaţii Vânt Presiune Umiditate
    00:00 +3°C° 0 mm 2 m/s 677 mmHg 71%
    01:00 +3°C° 0 mm 2 m/s 677 mmHg 72%
    02:00 +3°C° 0 mm 2 m/s 677 mmHg 73%
    03:00 +2°C° 0 mm 2 m/s 677 mmHg 74%
    04:00 +2°C° 0 mm 2 m/s 677 mmHg 75%
    05:00 +2°C° 0 mm 2 m/s 677 mmHg 75%
    06:00 +2°C° 0 mm 2 m/s 677 mmHg 76%
    07:00 +2°C° 0 mm 2 m/s 677 mmHg 77%
    08:00 +3°C° 0 mm 2 m/s 677 mmHg 76%
    09:00 +5°C° 0 mm 2 m/s 677 mmHg 76%
    10:00 +6°C° 0 mm 2 m/s 677 mmHg 75%
    11:00 +7°C° 0 mm 2 m/s 677 mmHg 76%
    12:00 +8°C° 0 mm 2 m/s 676 mmHg 76%
    13:00 +9°C° 0 mm 2 m/s 676 mmHg 77%
    14:00 +8°C° 0 mm 2 m/s 676 mmHg 78%
    15:00 +7°C° 0 mm 2 m/s 676 mmHg 80%
    16:00 +6°C° 0 mm 2 m/s 676 mmHg 81%
    17:00 +5°C° 0 mm 2 m/s 676 mmHg 81%
    18:00 +4°C° 0 mm 2 m/s 676 mmHg 80%
    19:00 +3°C° 0 mm 2 m/s 676 mmHg 79%
    20:00 +3°C° 0 mm 2 m/s 676 mmHg 79%
    21:00 +3°C° 0 mm 2 m/s 675 mmHg 79%
    22:00 +3°C° 0 mm 2 m/s 675 mmHg 78%
    23:00 +3°C° 0 mm 2 m/s 675 mmHg 79%

    Mâine, 25 Noiembrie, Sâmbătă

    Timp Temperatura Precipitaţii Vânt Presiune Umiditate
    00:00 +3°C° 0 mm 2 m/s 675 mmHg 80%
    01:00 +3°C° 0 mm 2 m/s 674 mmHg 80%
    02:00 +3°C° 0 mm 2 m/s 674 mmHg 82%
    03:00 +2°C° 0 mm 2 m/s 673 mmHg 83%
    04:00 +2°C° 0 mm 2 m/s 672 mmHg 84%
    05:00 +2°C° 0 mm 2 m/s 672 mmHg 85%
    06:00 +1°C° 0 mm 3 m/s 671 mmHg 86%
    07:00 +1°C° 0 mm 3 m/s 671 mmHg 87%
    08:00 +2°C° 0 mm 3 m/s 670 mmHg 85%
    09:00 +4°C° 0 mm 3 m/s 670 mmHg 84%
    10:00 +5°C° 0 mm 3 m/s 670 mmHg 83%
    11:00 +5°C° 0,1 mm 3 m/s 670 mmHg 85%
    12:00 +5°C° 0,1 mm 3 m/s 670 mmHg 87%
    13:00 +7°C° 0,1 mm 3 m/s 670 mmHg 88%
    14:00 +5°C° 1,7 mm 3 m/s 670 mmHg 91%
    15:00 +5°C° 1,7 mm 2 m/s 671 mmHg 93%
    16:00 +4°C° 1,7 mm 2 m/s 671 mmHg 96%
    17:00 +3°C° 1,6 mm 2 m/s 671 mmHg 96%
    18:00 +3°C° 1,6 mm 2 m/s 671 mmHg 96%
    19:00 +2°C° 1,6 mm 2 m/s 672 mmHg 96%
    20:00 +2°C° 1,1 mm 2 m/s 672 mmHg 96%
    21:00 +2°C° 1,1 mm 2 m/s 672 mmHg 96%
    22:00 +2°C° 1,1 mm 2 m/s 672 mmHg 96%
    23:00 +1°C° 1 mm 2 m/s 673 mmHg 96%

    Poimâine, 26 Noiembrie, Duminică

    Timp Temperatura Precipitaţii Vânt Presiune Umiditate
    00:00 +1°C° 1 mm 2 m/s 673 mmHg 96%
    01:00 +1°C° 1 mm 2 m/s 674 mmHg 96%
    02:00 -1°C° 0,9 mm 2 m/s 674 mmHg 96%
    03:00 -1°C° 0,9 mm 2 m/s 674 mmHg 96%
    04:00 -2°C° 0,9 mm 2 m/s 675 mmHg 96%
    05:00 -2°C° 0,7 mm 2 m/s 675 mmHg 96%
    06:00 -2°C° 0,7 mm 2 m/s 676 mmHg 96%
    07:00 -3°C° 0,7 mm 2 m/s 676 mmHg 97%
    08:00 -3°C° 1,1 mm 2 m/s 677 mmHg 96%
    09:00 -3°C° 1,1 mm 2 m/s 677 mmHg 96%
    10:00 -4°C° 1,1 mm 3 m/s 678 mmHg 95%
    11:00 -4°C° 0,6 mm 3 m/s 678 mmHg 93%
    12:00 -4°C° 0,6 mm 3 m/s 678 mmHg 91%
    13:00 -4°C° 0,6 mm 3 m/s 679 mmHg 89%
    14:00 -4°C° 0,1 mm 2 m/s 679 mmHg 90%
    15:00 -4°C° 0,1 mm 2 m/s 679 mmHg 91%
    16:00 -5°C° 0,1 mm 2 m/s 679 mmHg 92%
    17:00 -6°C° 0,1 mm 2 m/s 679 mmHg 92%
    18:00 -7°C° 0,1 mm 2 m/s 680 mmHg 93%
    19:00 -8°C° 0,1 mm 2 m/s 680 mmHg 93%
    20:00 -8°C° 0 mm 2 m/s 680 mmHg 92%
    21:00 -9°C° 0 mm 2 m/s 680 mmHg 92%
    22:00 -9°C° 0 mm 2 m/s 681 mmHg 91%
    23:00 -9°C° 0 mm 2 m/s 681 mmHg 90%

    27 Noiembrie, Luni

    Timp Temperatura Precipitaţii Vânt Presiune Umiditate
    00:00 -10°C° 0 mm 2 m/s 680 mmHg 89%
    01:00 -10°C° 0 mm 2 m/s 680 mmHg 89%
    02:00 -10°C° 0 mm 2 m/s 680 mmHg 89%
    03:00 -10°C° 0 mm 2 m/s 680 mmHg 88%
    04:00 -10°C° 0 mm 2 m/s 680 mmHg 88%
    05:00 -10°C° 0 mm 2 m/s 680 mmHg 88%
    06:00 -10°C° 0 mm 2 m/s 680 mmHg 87%
    07:00 -9°C° 0 mm 2 m/s 681 mmHg 87%
    08:00 -8°C° 0 mm 2 m/s 681 mmHg 86%
    09:00 -7°C° 0 mm 2 m/s 681 mmHg 86%
    10:00 -5°C° 0 mm 2 m/s 681 mmHg 85%
    11:00 -2°C° 0 mm 1 m/s 681 mmHg 83%
    12:00 -1°C° 0 mm 1 m/s 680 mmHg 81%
    13:00 0°C° 0 mm 1 m/s 680 mmHg 78%
    14:00 -1°C° 0 mm 1 m/s 679 mmHg 82%
    15:00 -2°C° 0 mm 1 m/s 679 mmHg 85%
    16:00 -3°C° 0 mm 1 m/s 678 mmHg 89%
    17:00 -4°C° 0 mm 1 m/s 678 mmHg 88%
    18:00 -6°C° 0 mm 1 m/s 678 mmHg 87%
    19:00 -7°C° 0 mm 2 m/s 678 mmHg 86%
    20:00 -7°C° 0 mm 2 m/s 678 mmHg 83%
    21:00 -7°C° 0 mm 2 m/s 678 mmHg 81%
    22:00 -7°C° 0 mm 2 m/s 678 mmHg 78%
    23:00 -7°C° 0 mm 2 m/s 678 mmHg 78%

    28 Noiembrie, Marţi

    Timp Temperatura Precipitaţii Vânt Presiune Umiditate
    00:00 -6°C° 0 mm 1 m/s 677 mmHg 78%
    01:00 -6°C° 0 mm 1 m/s 677 mmHg 78%
    02:00 -6°C° 0 mm 1 m/s 677 mmHg 78%
    03:00 -6°C° 0 mm 1 m/s 676 mmHg 78%
    04:00 -6°C° 0 mm 1 m/s 676 mmHg 79%
    05:00 -6°C° 0 mm 1 m/s 676 mmHg 79%
    06:00 -7°C° 0 mm 2 m/s 676 mmHg 79%
    07:00 -7°C° 0 mm 2 m/s 675 mmHg 79%
    08:00 -3°C° 0 mm 1 m/s 675 mmHg 78%
    09:00 -1°C° 0 mm 1 m/s 675 mmHg 78%
    10:00 +1°C° 0 mm 1 m/s 676 mmHg 78%
    11:00 +2°C° 0 mm 1 m/s 675 mmHg 79%
    12:00 +3°C° 0 mm 1 m/s 675 mmHg 81%
    13:00 +4°C° 0 mm 1 m/s 674 mmHg 82%
    14:00 +3°C° 0 mm 1 m/s 674 mmHg 83%
    15:00 +2°C° 0 mm 1 m/s 673 mmHg 84%
    16:00 0°C° 0 mm 1 m/s 673 mmHg 85%
    17:00 -2°C° 0 mm 2 m/s 672 mmHg 85%
    18:00 -3°C° 0 mm 2 m/s 672 mmHg 84%
    19:00 -4°C° 0 mm 2 m/s 672 mmHg 84%
    20:00 -4°C° 0 mm 2 m/s 672 mmHg 84%
    21:00 -4°C° 0 mm 2 m/s 672 mmHg 83%
    22:00 -5°C° 0 mm 2 m/s 671 mmHg 83%
    23:00 -5°C° 0 mm 2 m/s 671 mmHg 83%

    29 Noiembrie, Miercuri

    Timp Temperatura Precipitaţii Vânt Presiune Umiditate
    00:00 -5°C° 0 mm 2 m/s 671 mmHg 83%
    01:00 -5°C° 0 mm 2 m/s 670 mmHg 83%
    02:00 -5°C° 0 mm 2 m/s 670 mmHg 83%
    03:00 -6°C° 0 mm 2 m/s 670 mmHg 83%
    04:00 -6°C° 0 mm 2 m/s 670 mmHg 83%
    05:00 -5°C° 0 mm 2 m/s 669 mmHg 83%
    06:00 -5°C° 0 mm 2 m/s 669 mmHg 83%
    07:00 -5°C° 0 mm 2 m/s 669 mmHg 83%
    08:00 -4°C° 0 mm 2 m/s 669 mmHg 83%
    09:00 -3°C° 0 mm 2 m/s 669 mmHg 83%
    10:00 -2°C° 0 mm 2 m/s 669 mmHg 83%
    11:00 -1°C° 0 mm 2 m/s 669 mmHg 84%
    12:00 +1°C° 0 mm 2 m/s 669 mmHg 85%
    13:00 +3°C° 0 mm 1 m/s 669 mmHg 87%
    14:00 +2°C° 0 mm 1 m/s 668 mmHg 88%
    15:00 +1°C° 0 mm 1 m/s 668 mmHg 89%
    16:00 0°C° 0 mm 1 m/s 667 mmHg 91%
    17:00 -3°C° 0 mm 2 m/s 667 mmHg 91%
    18:00 -4°C° 0 mm 2 m/s 667 mmHg 91%
    19:00 -4°C° 0 mm 2 m/s 667 mmHg 91%
    20:00 -4°C° 0,4 mm 2 m/s 667 mmHg 93%
    21:00 -1°C° 0,4 mm 1 m/s 667 mmHg 94%
    22:00 -1°C° 0,4 mm 1 m/s 667 mmHg 95%
    23:00 -1°C° 1,6 mm 1 m/s 666 mmHg 96%
    Arată mai mult